"Sample Date","Sample Time","Sample Value","Units","Flow Rate","Sample Interval","Number Channels","Micron Size 0","Counts/Channel 0","Micron Size 1","Counts/Channel 1","Micron Size 2","Counts/Channel 2","Micron Size 3","Counts/Channel 3","Micron Size 4","Counts/Channel 4","Micron Size 5","Counts/Channel 5","Micron Size 6","Counts/Channel 6","Micron Size 7","Counts/Channel 7","Micron Size 8","Counts/Channel 8","Micron Size 9","Counts/Channel 9","Micron Size 10","Counts/Channel 10","Micron Size 11","Counts/Channel 11","Micron Size 12","Counts/Channel 12","Micron Size 13","Counts/Channel 13","Micron Size 14","Counts/Channel 14","Micron Size 15","Counts/Channel 15","Micron Size 16","Counts/Channel 16","Micron Size 17","Counts/Channel 17","Micron Size 18","Counts/Channel 18","Micron Size 19","Counts/Channel 19","Micron Size 20","Counts/Channel 20","Micron Size 21","Counts/Channel 21","Micron Size 22","Counts/Channel 22","Micron Size 23","Counts/Channel 23","Micron Size 24","Counts/Channel 24","Micron Size 25","Counts/Channel 25","Micron Size 26","Counts/Channel 26","Micron Size 27","Counts/Channel 27","Micron Size 28","Counts/Channel 28","Micron Size 29","Counts/Channel 29","Micron Size 30","Counts/Channel 30","Micron Size 31","Counts/Channel 31"
"04/07/08","15:00:04",16162.000,"cc",28231.449,6.00,6,0.100,7602.000,0.200,2660.000,0.300,2242.000,0.500,2604.000,1.000,1054.000,5.000,0
"04/07/08","15:00:10",16271.000,"cc",28285.756,6.00,6,0.100,7679.000,0.200,2649.000,0.300,2261.000,0.500,2629.000,1.000,1053.000,5.000,0
"04/07/08","15:00:16",15753.000,"cc",28328.500,6.00,6,0.100,7420.000,0.200,2686.000,0.300,2160.000,0.500,2519.000,1.000,968.000,5.000,0
"04/07/08","15:00:22",15673.000,"cc",28346.883,6.00,6,0.100,7366.000,0.200,2688.000,0.300,2196.000,0.500,2434.000,1.000,988.000,5.000,1.000
"04/07/08","15:00:28",15585.000,"cc",28405.670,6.00,6,0.100,7506.000,0.200,2549.000,0.300,2126.000,0.500,2419.000,1.000,985.000,5.000,0
"04/07/08","15:00:34",14228.000,"cc",28311.098,6.00,6,0.100,6723.000,0.200,2298.000,0.300,1904.000,0.500,2416.000,1.000,887.000,5.000,0
"04/07/08","15:00:40",14953.000,"cc",28447.018,6.00,6,0.100,7034.000,0.200,2474.000,0.300,2016.000,0.500,2448.000,1.000,981.000,5.000,0
"04/07/08","15:00:46",15349.000,"cc",28271.377,6.00,6,0.100,7301.000,0.200,2497.000,0.300,2066.000,0.500,2481.000,1.000,1004.000,5.000,0
"04/07/08","15:00:52",15859.000,"cc",28297.588,6.00,6,0.100,7453.000,0.200,2672.000,0.300,2223.000,0.500,2520.000,1.000,991.000,5.000,0
"04/07/08","15:00:58",15619.000,"cc",28199.371,6.00,6,0.100,7268.000,0.200,2552.000,0.300,2260.000,0.500,2533.000,1.000,1006.000,5.000,0
"04/07/08","15:01:04",15224.000,"cc",28368.109,6.00,6,0.100,7180.000,0.200,2563.000,0.300,2040.000,0.500,2452.000,1.000,988.000,5.000,1.000
"04/07/08","15:01:10",14865.000,"cc",28252.801,6.00,6,0.100,7023.000,0.200,2388.000,0.300,2129.000,0.500,2352.000,1.000,973.000,5.000,0
"04/07/08","15:01:16",15076.000,"cc",28253.992,6.00,6,0.100,7028.000,0.200,2477.000,0.300,2088.000,0.500,2459.000,1.000,1024.000,5.000,0
"04/07/08","15:01:22",14700.000,"cc",28321.941,6.00,6,0.100,6978.000,0.200,2410.000,0.300,1986.000,0.500,2348.000,1.000,978.000,5.000,0
"04/07/08","15:01:28",14734.000,"cc",28310.621,6.00,6,0.100,6931.000,0.200,2430.000,0.300,2035.000,0.500,2390.000,1.000,948.000,5.000,0
"04/07/08","15:01:34",15323.000,"cc",28357.496,6.00,6,0.100,7296.000,0.200,2582.000,0.300,2081.000,0.500,2433.000,1.000,931.000,5.000,0
"04/07/08","15:01:40",15885.000,"cc",28343.307,6.00,6,0.100,7381.000,0.200,2705.000,0.300,2272.000,0.500,2535.000,1.000,992.000,5.000,0
"04/07/08","15:01:46",16856.000,"cc",28283.600,6.00,6,0.100,7871.000,0.200,2801.000,0.300,2367.000,0.500,2738.000,1.000,1079.000,5.000,0
"04/07/08","15:01:52",16071.000,"cc",28346.596,6.00,6,0.100,7519.000,0.200,2684.000,0.300,2295.000,0.500,2535.000,1.000,1038.000,5.000,0
"04/07/08","15:01:58",15349.000,"cc",28410.016,6.00,6,0.100,7248.000,0.200,2606.000,0.300,2113.000,0.500,2440.000,1.000,942.000,5.000,0
"04/07/08","15:02:04",15397.000,"cc",28231.020,6.00,6,0.100,7227.000,0.200,2557.000,0.300,2128.000,0.500,2511.000,1.000,974.000,5.000,0
"04/07/08","15:02:10",14763.000,"cc",28340.668,6.00,6,0.100,7070.000,0.200,2352.000,0.300,1984.000,0.500,2417.000,1.000,940.000,5.000,0
"04/07/08","15:02:16",14186.000,"cc",28386.336,6.00,6,0.100,6767.000,0.200,2306.000,0.300,1987.000,0.500,2249.000,1.000,877.000,5.000,0
"04/07/08","15:02:22",14732.000,"cc",28315.262,6.00,6,0.100,7121.000,0.200,2301.000,0.300,2020.000,0.500,2402.000,1.000,888.000,5.000,0
"04/07/08","15:02:28",13849.000,"cc",28342.635,6.00,6,0.100,6751.000,0.200,2179.000,0.300,1825.000,0.500,2145.000,1.000,948.000,5.000,1.000
"04/07/08","15:02:34",13948.000,"cc",28328.016,6.00,6,0.100,6717.000,0.200,2206.000,0.300,1872.000,0.500,2268.000,1.000,885.000,5.000,0
"04/07/08","15:02:40",14349.000,"cc",28236.070,6.00,6,0.100,6833.000,0.200,2260.000,0.300,1986.000,0.500,2325.000,1.000,945.000,5.000,0
"04/07/08","15:02:46",14834.000,"cc",28354.678,6.00,6,0.100,6953.000,0.200,2478.000,0.300,2078.000,0.500,2379.000,1.000,946.000,5.000,0
"04/07/08","15:02:52",14630.000,"cc",28331.762,6.00,6,0.100,7025.000,0.200,2381.000,0.300,2016.000,0.500,2293.000,1.000,915.000,5.000,0
"04/07/08","15:02:58",14758.000,"cc",28349.791,6.00,6,0.100,6999.000,0.200,2401.000,0.300,2060.000,0.500,2358.000,1.000,940.000,5.000,0
"04/07/08","15:03:04",14295.000,"cc",28246.182,6.00,6,0.100,6904.000,0.200,2228.000,0.300,1890.000,0.500,2297.000,1.000,976.000,5.000,0
"04/07/08","15:03:10",13907.000,"cc",28303.930,6.00,6,0.100,6735.000,0.200,2237.000,0.300,1798.000,0.500,2240.000,1.000,897.000,5.000,0
"04/07/08","15:03:16",14754.000,"cc",28320.201,6.00,6,0.100,7047.000,0.200,2432.000,0.300,1953.000,0.500,2352.000,1.000,970.000,5.000,0
"04/07/08","15:03:22",15865.000,"cc",28296.725,6.00,6,0.100,7404.000,0.200,2625.000,0.300,2155.000,0.500,2675.000,1.000,1006.000,5.000,0
"04/07/08","15:03:28",15179.000,"cc",28337.340,6.00,6,0.100,7151.000,0.200,2450.000,0.300,2137.000,0.500,2463.000,1.000,978.000,5.000,0
"04/07/08","15:03:34",14591.000,"cc",28300.992,6.00,6,0.100,6832.000,0.200,2478.000,0.300,1957.000,0.500,2381.000,1.000,943.000,5.000,0
"04/07/08","15:03:40",14420.000,"cc",28319.340,6.00,6,0.100,6917.000,0.200,2321.000,0.300,2006.000,0.500,2276.000,1.000,900.000,5.000,0
"04/07/08","15:03:46",14658.000,"cc",28319.906,6.00,6,0.100,6943.000,0.200,2413.000,0.300,2018.000,0.500,2319.000,1.000,965.000,5.000,0
"04/07/08","15:03:52",14554.000,"cc",28373.121,6.00,6,0.100,7000.000,0.200,2358.000,0.300,1963.000,0.500,2316.000,1.000,917.000,5.000,0
"04/07/08","15:03:58",13821.000,"cc",28430.084,6.00,6,0.100,6721.000,0.200,2150.000,0.300,1872.000,0.500,2197.000,1.000,881.000,5.000,0
"04/07/08","15:04:04",13553.000,"cc",28306.299,6.00,6,0.100,6544.000,0.200,2166.000,0.300,1876.000,0.500,2098.000,1.000,868.000,5.000,1.000
"04/07/08","15:04:10",13766.000,"cc",28325.854,6.00,6,0.100,6470.000,0.200,2206.000,0.300,1903.000,0.500,2277.000,1.000,910.000,5.000,0
"04/07/08","15:04:16",14095.000,"cc",28243.369,6.00,6,0.100,6755.000,0.200,2295.000,0.300,1867.000,0.500,2237.000,1.000,941.000,5.000,0
"04/07/08","15:04:22",14305.000,"cc",28214.111,6.00,6,0.100,6840.000,0.200,2248.000,0.300,1993.000,0.500,2302.000,1.000,922.000,5.000,0
"04/07/08","15:04:28",14785.000,"cc",28147.109,6.00,6,0.100,6952.000,0.200,2281.000,0.300,2142.000,0.500,2483.000,1.000,926.000,5.000,1.000
"04/07/08","15:04:34",14932.000,"cc",28295.865,6.00,6,0.100,7027.000,0.200,2446.000,0.300,2025.000,0.500,2448.000,1.000,986.000,5.000,0
"04/07/08","15:04:40",15124.000,"cc",28343.992,6.00,6,0.100,6983.000,0.200,2584.000,0.300,2082.000,0.500,2500.000,1.000,975.000,5.000,0
"04/07/08","15:04:46",15411.000,"cc",28289.127,6.00,6,0.100,7208.000,0.200,2591.000,0.300,2113.000,0.500,2548.000,1.000,951.000,5.000,0
"04/07/08","15:04:52",14544.000,"cc",28377.002,6.00,6,0.100,6952.000,0.200,2307.000,0.300,2014.000,0.500,2280.000,1.000,991.000,5.000,0
"04/07/08","15:04:58",14669.000,"cc",28277.465,6.00,6,0.100,6910.000,0.200,2383.000,0.300,2022.000,0.500,2382.000,1.000,972.000,5.000,0
"04/07/08","15:05:04",14020.000,"cc",28264.066,6.00,6,0.100,6730.000,0.200,2202.000,0.300,1882.000,0.500,2306.000,1.000,900.000,5.000,0
"04/07/08","15:05:10",14480.000,"cc",28380.570,6.00,6,0.100,6888.000,0.200,2400.000,0.300,1922.000,0.500,2366.000,1.000,904.000,5.000,0
"04/07/08","15:05:16",14272.000,"cc",28436.248,6.00,6,0.100,6784.000,0.200,2314.000,0.300,1951.000,0.500,2333.000,1.000,890.000,5.000,0
"04/07/08","15:05:22",14064.000,"cc",28392.467,6.00,6,0.100,6789.000,0.200,2287.000,0.300,1854.000,0.500,2255.000,1.000,879.000,5.000,0
"04/07/08","15:05:28",14460.000,"cc",28248.252,6.00,6,0.100,6823.000,0.200,2322.000,0.300,1972.000,0.500,2342.000,1.000,1001.000,5.000,0
"04/07/08","15:05:34",14709.000,"cc",28311.807,6.00,6,0.100,6988.000,0.200,2324.000,0.300,2062.000,0.500,2375.000,1.000,960.000,5.000,0
"04/07/08","15:05:40",14699.000,"cc",28310.604,6.00,6,0.100,6945.000,0.200,2368.000,0.300,1992.000,0.500,2429.000,1.000,965.000,5.000,0
"04/07/08","15:05:46",15570.000,"cc",28300.424,6.00,6,0.100,7451.000,0.200,2501.000,0.300,2216.000,0.500,2428.000,1.000,974.000,5.000,0
"04/07/08","15:05:52",16364.000,"cc",28251.465,6.00,6,0.100,7639.000,0.200,2725.000,0.300,2361.000,0.500,2549.000,1.000,1090.000,5.000,0
"04/07/08","15:05:58",15779.000,"cc",28394.682,6.00,6,0.100,7302.000,0.200,2645.000,0.300,2287.000,0.500,2535.000,1.000,1010.000,5.000,0
"04/07/08","15:06:04",15453.000,"cc",28234.346,6.00,6,0.100,7361.000,0.200,2534.000,0.300,2157.000,0.500,2449.000,1.000,952.000,5.000,0
"04/07/08","15:06:10",15536.000,"cc",28499.098,6.00,6,0.100,7375.000,0.200,2547.000,0.300,2122.000,0.500,2510.000,1.000,982.000,5.000,0
"04/07/08","15:06:16",14096.000,"cc",28380.600,6.00,6,0.100,6792.000,0.200,2336.000,0.300,1900.000,0.500,2226.000,1.000,842.000,5.000,0
"04/07/08","15:06:22",14211.000,"cc",28272.410,6.00,6,0.100,6806.000,0.200,2213.000,0.300,1948.000,0.500,2321.000,1.000,923.000,5.000,0
"04/07/08","15:06:28",14394.000,"cc",28169.061,6.00,6,0.100,6850.000,0.200,2259.000,0.300,1986.000,0.500,2377.000,1.000,922.000,5.000,0
"04/07/08","15:06:34",15105.000,"cc",28323.336,6.00,6,0.100,7015.000,0.200,2496.000,0.300,2115.000,0.500,2479.000,1.000,1000.000,5.000,0
"04/07/08","15:06:40",15589.000,"cc",28344.811,6.00,6,0.100,7309.000,0.200,2565.000,0.300,2174.000,0.500,2536.000,1.000,1005.000,5.000,0
"04/07/08","15:06:46",14696.000,"cc",28374.859,6.00,6,0.100,6852.000,0.200,2416.000,0.300,2089.000,0.500,2382.000,1.000,956.000,5.000,1.000
"04/07/08","15:06:52",14937.000,"cc",28322.441,6.00,6,0.100,7056.000,0.200,2417.000,0.300,2119.000,0.500,2396.000,1.000,949.000,5.000,0
"04/07/08","15:06:58",15074.000,"cc",28301.465,6.00,6,0.100,7040.000,0.200,2457.000,0.300,2105.000,0.500,2473.000,1.000,999.000,5.000,0
"04/07/08","15:07:04",14546.000,"cc",28283.627,6.00,6,0.100,6793.000,0.200,2490.000,0.300,1914.000,0.500,2412.000,1.000,937.000,5.000,0
"04/07/08","15:07:10",14041.000,"cc",28267.471,6.00,6,0.100,6728.000,0.200,2252.000,0.300,1982.000,0.500,2155.000,1.000,924.000,5.000,0
"04/07/08","15:07:16",15139.000,"cc",28287.654,6.00,6,0.100,7042.000,0.200,2414.000,0.300,2097.000,0.500,2578.000,1.000,1008.000,5.000,0
"04/07/08","15:07:22",15252.000,"cc",28212.947,6.00,6,0.100,6938.000,0.200,2583.000,0.300,2233.000,0.500,2520.000,1.000,978.000,5.000,0
"04/07/08","15:07:28",16189.000,"cc",28277.016,6.00,6,0.100,7572.000,0.200,2734.000,0.300,2287.000,0.500,2588.000,1.000,1008.000,5.000,0
"04/07/08","15:07:34",15318.000,"cc",28444.160,6.00,6,0.100,7213.000,0.200,2446.000,0.300,2146.000,0.500,2567.000,1.000,946.000,5.000,0
"04/07/08","15:07:40",15010.000,"cc",28300.152,6.00,6,0.100,7027.000,0.200,2489.000,0.300,2091.000,0.500,2424.000,1.000,979.000,5.000,0
"04/07/08","15:07:46",15455.000,"cc",28220.582,6.00,6,0.100,7229.000,0.200,2532.000,0.300,2126.000,0.500,2580.000,1.000,988.000,5.000,0
"04/07/08","15:07:52",15539.000,"cc",28354.693,6.00,6,0.100,7246.000,0.200,2581.000,0.300,2191.000,0.500,2525.000,1.000,996.000,5.000,0
"04/07/08","15:07:58",15769.000,"cc",28383.275,6.00,6,0.100,7455.000,0.200,2598.000,0.300,2144.000,0.500,2587.000,1.000,985.000,5.000,0
"04/07/08","15:08:04",15386.000,"cc",28335.318,6.00,6,0.100,7202.000,0.200,2612.000,0.300,2149.000,0.500,2435.000,1.000,988.000,5.000,0
"04/07/08","15:08:10",15481.000,"cc",28248.707,6.00,6,0.100,7232.000,0.200,2650.000,0.300,2126.000,0.500,2476.000,1.000,997.000,5.000,0
"04/07/08","15:08:16",16585.000,"cc",28292.172,6.00,6,0.100,7610.000,0.200,2743.000,0.300,2381.000,0.500,2777.000,1.000,1074.000,5.000,0
"04/07/08","15:08:22",16046.000,"cc",28301.160,6.00,6,0.100,7399.000,0.200,2755.000,0.300,2244.000,0.500,2614.000,1.000,1033.000,5.000,1.000
"04/07/08","15:08:28",15989.000,"cc",28300.506,6.00,6,0.100,7514.000,0.200,2605.000,0.300,2243.000,0.500,2612.000,1.000,1015.000,5.000,0
"04/07/08","15:08:34",15305.000,"cc",28335.258,6.00,6,0.100,7187.000,0.200,2420.000,0.300,2187.000,0.500,2527.000,1.000,984.000,5.000,0
"04/07/08","15:08:40",15253.000,"cc",28400.273,6.00,6,0.100,7096.000,0.200,2548.000,0.300,2155.000,0.500,2480.000,1.000,974.000,5.000,0
"04/07/08","15:08:46",15348.000,"cc",28404.398,6.00,6,0.100,7196.000,0.200,2573.000,0.300,2085.000,0.500,2534.000,1.000,959.000,5.000,1.000
"04/07/08","15:08:52",15662.000,"cc",28233.764,6.00,6,0.100,7189.000,0.200,2655.000,0.300,2262.000,0.500,2572.000,1.000,984.000,5.000,0
"04/07/08","15:08:58",15533.000,"cc",28299.428,6.00,6,0.100,7171.000,0.200,2629.000,0.300,2150.000,0.500,2572.000,1.000,1011.000,5.000,0
"04/07/08","15:09:04",15727.000,"cc",28375.053,6.00,6,0.100,7304.000,0.200,2614.000,0.300,2118.000,0.500,2648.000,1.000,1043.000,5.000,0
"04/07/08","15:09:10",16522.000,"cc",28245.281,6.00,6,0.100,7436.000,0.200,2861.000,0.300,2391.000,0.500,2760.000,1.000,1074.000,5.000,0
"04/07/08","15:09:16",16056.000,"cc",28278.006,6.00,6,0.100,7540.000,0.200,2637.000,0.300,2236.000,0.500,2674.000,1.000,969.000,5.000,0
"04/07/08","15:09:22",15142.000,"cc",28391.221,6.00,6,0.100,7097.000,0.200,2491.000,0.300,2062.000,0.500,2526.000,1.000,966.000,5.000,0
"04/07/08","15:09:28",15655.000,"cc",28347.799,6.00,6,0.100,7359.000,0.200,2626.000,0.300,2113.000,0.500,2583.000,1.000,974.000,5.000,0
"04/07/08","15:09:34",14534.000,"cc",28272.734,6.00,6,0.100,6918.000,0.200,2404.000,0.300,1925.000,0.500,2359.000,1.000,926.000,5.000,2.000
"04/07/08","15:09:40",14303.000,"cc",28282.012,6.00,6,0.100,6733.000,0.200,2323.000,0.300,1960.000,0.500,2352.000,1.000,935.000,5.000,0
"04/07/08","15:09:46",14349.000,"cc",28478.668,6.00,6,0.100,6711.000,0.200,2404.000,0.300,1989.000,0.500,2316.000,1.000,929.000,5.000,0
"04/07/08","15:09:52",14133.000,"cc",28371.717,6.00,6,0.100,6846.000,0.200,2157.000,0.300,1906.000,0.500,2315.000,1.000,909.000,5.000,0
"04/07/08","15:09:58",14225.000,"cc",28338.930,6.00,6,0.100,6800.000,0.200,2296.000,0.300,1953.000,0.500,2274.000,1.000,902.000,5.000,0
"04/07/08","15:10:04",14217.000,"cc",28231.463,6.00,6,0.100,6711.000,0.200,2381.000,0.300,1959.000,0.500,2247.000,1.000,919.000,5.000,0
"04/07/08","15:10:10",14578.000,"cc",28299.111,6.00,6,0.100,6765.000,0.200,2349.000,0.300,2111.000,0.500,2426.000,1.000,927.000,5.000,0
"04/07/08","15:10:16",15184.000,"cc",28212.070,6.00,6,0.100,7112.000,0.200,2550.000,0.300,2092.000,0.500,2468.000,1.000,962.000,5.000,0
"04/07/08","15:10:22",15620.000,"cc",28332.738,6.00,6,0.100,7338.000,0.200,2584.000,0.300,2179.000,0.500,2552.000,1.000,967.000,5.000,0
"04/07/08","15:10:28",15390.000,"cc",28339.857,6.00,6,0.100,7162.000,0.200,2512.000,0.300,2136.000,0.500,2515.000,1.000,1065.000,5.000,0
"04/07/08","15:10:34",15096.000,"cc",28324.027,6.00,6,0.100,7097.000,0.200,2489.000,0.300,2109.000,0.500,2486.000,1.000,913.000,5.000,2.000
"04/07/08","15:10:40",15324.000,"cc",28190.352,6.00,6,0.100,7149.000,0.200,2476.000,0.300,2084.000,0.500,2573.000,1.000,1042.000,5.000,0
"04/07/08","15:10:46",16678.000,"cc",28428.883,6.00,6,0.100,7823.000,0.200,2821.000,0.300,2284.000,0.500,2690.000,1.000,1060.000,5.000,0
"04/07/08","15:10:52",17434.000,"cc",28427.803,6.00,6,0.100,8018.000,0.200,3017.000,0.300,2460.000,0.500,2840.000,1.000,1099.000,5.000,0
"04/07/08","15:10:58",14813.000,"cc",28274.422,6.00,6,0.100,6983.000,0.200,2349.000,0.300,2059.000,0.500,2409.000,1.000,1013.000,5.000,0
"04/07/08","15:11:04",14579.000,"cc",28239.639,6.00,6,0.100,6879.000,0.200,2415.000,0.300,1979.000,0.500,2353.000,1.000,953.000,5.000,0
"04/07/08","15:11:10",14993.000,"cc",28293.764,6.00,6,0.100,7096.000,0.200,2518.000,0.300,2053.000,0.500,2369.000,1.000,957.000,5.000,0
"04/07/08","15:11:16",14713.000,"cc",28474.535,6.00,6,0.100,6935.000,0.200,2408.000,0.300,1986.000,0.500,2396.000,1.000,988.000,5.000,0
"04/07/08","15:11:22",14282.000,"cc",28352.764,6.00,6,0.100,6766.000,0.200,2277.000,0.300,1909.000,0.500,2391.000,1.000,937.000,5.000,2.000
"04/07/08","15:11:28",14760.000,"cc",28255.670,6.00,6,0.100,7010.000,0.200,2391.000,0.300,2029.000,0.500,2364.000,1.000,966.000,5.000,0
"04/07/08","15:11:34",15005.000,"cc",28244.652,6.00,6,0.100,7147.000,0.200,2377.000,0.300,2061.000,0.500,2464.000,1.000,956.000,5.000,0
"04/07/08","15:11:40",14579.000,"cc",28319.695,6.00,6,0.100,6897.000,0.200,2353.000,0.300,2006.000,0.500,2388.000,1.000,935.000,5.000,0
"04/07/08","15:11:46",15368.000,"cc",28224.566,6.00,6,0.100,7220.000,0.200,2512.000,0.300,2183.000,0.500,2479.000,1.000,974.000,5.000,0
"04/07/08","15:11:52",15432.000,"cc",28259.625,6.00,6,0.100,7154.000,0.200,2560.000,0.300,2249.000,0.500,2538.000,1.000,931.000,5.000,0
"04/07/08","15:11:58",15455.000,"cc",28371.766,6.00,6,0.100,7240.000,0.200,2521.000,0.300,2191.000,0.500,2522.000,1.000,981.000,5.000,0
"04/07/08","15:12:04",14163.000,"cc",28297.139,6.00,6,0.100,6740.000,0.200,2319.000,0.300,1938.000,0.500,2286.000,1.000,880.000,5.000,0
"04/07/08","15:12:10",13922.000,"cc",28383.965,6.00,6,0.100,6711.000,0.200,2160.000,0.300,1910.000,0.500,2257.000,1.000,884.000,5.000,0
"04/07/08","15:12:16",14693.000,"cc",28346.020,6.00,6,0.100,6991.000,0.200,2406.000,0.300,2034.000,0.500,2364.000,1.000,898.000,5.000,0
"04/07/08","15:12:22",15279.000,"cc",28227.234,6.00,6,0.100,7144.000,0.200,2483.000,0.300,2134.000,0.500,2562.000,1.000,956.000,5.000,0
"04/07/08","15:12:28",15851.000,"cc",28358.979,6.00,6,0.100,7500.000,0.200,2603.000,0.300,2270.000,0.500,2504.000,1.000,974.000,5.000,0
"04/07/08","15:12:34",15352.000,"cc",28341.713,6.00,6,0.100,7224.000,0.200,2501.000,0.300,2130.000,0.500,2465.000,1.000,1032.000,5.000,0
"04/07/08","15:12:40",15542.000,"cc",28312.272,6.00,6,0.100,7288.000,0.200,2576.000,0.300,2169.000,0.500,2499.000,1.000,1010.000,5.000,0
"04/07/08","15:12:46",16241.000,"cc",28254.891,6.00,6,0.100,7645.000,0.200,2703.000,0.300,2217.000,0.500,2639.000,1.000,1037.000,5.000,0
"04/07/08","15:12:52",16232.000,"cc",28322.330,6.00,6,0.100,7432.000,0.200,2766.000,0.300,2354.000,0.500,2639.000,1.000,1041.000,5.000,0
"04/07/08","15:12:58",16042.000,"cc",28327.440,6.00,6,0.100,7446.000,0.200,2694.000,0.300,2306.000,0.500,2594.000,1.000,1002.000,5.000,0
"04/07/08","15:13:04",16034.000,"cc",28263.014,6.00,6,0.100,7596.000,0.200,2678.000,0.300,2255.000,0.500,2524.000,1.000,981.000,5.000,0
"04/07/08","15:13:10",15903.000,"cc",28311.404,6.00,6,0.100,7488.000,0.200,2688.000,0.300,2208.000,0.500,2516.000,1.000,1003.000,5.000,0
"04/07/08","15:13:16",16440.000,"cc",28313.602,6.00,6,0.100,7624.000,0.200,2815.000,0.300,2306.000,0.500,2691.000,1.000,1004.000,5.000,0
"04/07/08","15:13:22",15294.000,"cc",28484.818,6.00,6,0.100,7127.000,0.200,2620.000,0.300,2104.000,0.500,2457.000,1.000,986.000,5.000,0
"04/07/08","15:13:28",15073.000,"cc",28294.227,6.00,6,0.100,7146.000,0.200,2481.000,0.300,2047.000,0.500,2441.000,1.000,958.000,5.000,0
"04/07/08","15:13:34",15269.000,"cc",28316.207,6.00,6,0.100,7139.000,0.200,2593.000,0.300,2108.000,0.500,2451.000,1.000,978.000,5.000,0
"04/07/08","15:13:40",15164.000,"cc",28296.635,6.00,6,0.100,7029.000,0.200,2548.000,0.300,2085.000,0.500,2493.000,1.000,1009.000,5.000,0
"04/07/08","15:13:46",15682.000,"cc",28233.750,6.00,6,0.100,7416.000,0.200,2575.000,0.300,2201.000,0.500,2540.000,1.000,950.000,5.000,0
"04/07/08","15:13:52",15794.000,"cc",28383.856,6.00,6,0.100,7385.000,0.200,2586.000,0.300,2236.000,0.500,2568.000,1.000,1019.000,5.000,0
"04/07/08","15:13:58",15709.000,"cc",28327.328,6.00,6,0.100,7341.000,0.200,2629.000,0.300,2180.000,0.500,2566.000,1.000,993.000,5.000,0
"04/07/08","15:14:04",16148.000,"cc",28327.232,6.00,6,0.100,7574.000,0.200,2701.000,0.300,2228.000,0.500,2649.000,1.000,996.000,5.000,0
"04/07/08","15:14:10",16085.000,"cc",28253.389,6.00,6,0.100,7608.000,0.200,2756.000,0.300,2173.000,0.500,2567.000,1.000,981.000,5.000,0
"04/07/08","15:14:16",15601.000,"cc",28377.760,6.00,6,0.100,7264.000,0.200,2542.000,0.300,2190.000,0.500,2542.000,1.000,1062.000,5.000,1.000
"04/07/08","15:14:22",16739.000,"cc",28192.514,6.00,6,0.100,7756.000,0.200,2850.000,0.300,2348.000,0.500,2787.000,1.000,998.000,5.000,0
"04/07/08","15:14:28",15487.000,"cc",28388.203,6.00,6,0.100,7298.000,0.200,2553.000,0.300,2216.000,0.500,2471.000,1.000,949.000,5.000,0
"04/07/08","15:14:34",15088.000,"cc",28380.879,6.00,6,0.100,7124.000,0.200,2452.000,0.300,2178.000,0.500,2395.000,1.000,939.000,5.000,0
"04/07/08","15:14:40",15215.000,"cc",28244.178,6.00,6,0.100,7230.000,0.200,2496.000,0.300,2134.000,0.500,2394.000,1.000,961.000,5.000,0
"04/07/08","15:14:46",15403.000,"cc",28347.897,6.00,6,0.100,7234.000,0.200,2511.000,0.300,2233.000,0.500,2470.000,1.000,955.000,5.000,0
"04/07/08","15:14:52",15642.000,"cc",28378.750,6.00,6,0.100,7395.000,0.200,2493.000,0.300,2134.000,0.500,2569.000,1.000,1051.000,5.000,0
"04/07/08","15:14:58",14936.000,"cc",28243.113,6.00,6,0.100,7041.000,0.200,2476.000,0.300,2002.000,0.500,2439.000,1.000,978.000,5.000,0
"04/07/08","15:15:04",15030.000,"cc",28178.270,6.00,6,0.100,7163.000,0.200,2375.000,0.300,2086.000,0.500,2451.000,1.000,955.000,5.000,0
"04/07/08","15:15:10",15936.000,"cc",28381.695,6.00,6,0.100,7410.000,0.200,2649.000,0.300,2294.000,0.500,2598.000,1.000,985.000,5.000,0
"04/07/08","15:15:16",16513.000,"cc",28315.174,6.00,6,0.100,7638.000,0.200,2854.000,0.300,2380.000,0.500,2631.000,1.000,1010.000,5.000,0
"04/07/08","15:15:22",15303.000,"cc",28278.170,6.00,6,0.100,7216.000,0.200,2557.000,0.300,2083.000,0.500,2431.000,1.000,1016.000,5.000,0
"04/07/08","15:15:28",15842.000,"cc",28212.207,6.00,6,0.100,7430.000,0.200,2652.000,0.300,2178.000,0.500,2562.000,1.000,1020.000,5.000,0
"04/07/08","15:15:34",15385.000,"cc",28317.318,6.00,6,0.100,7208.000,0.200,2551.000,0.300,2100.000,0.500,2592.000,1.000,933.000,5.000,1.000
"04/07/08","15:15:40",14955.000,"cc",28365.400,6.00,6,0.100,7088.000,0.200,2436.000,0.300,2119.000,0.500,2346.000,1.000,965.000,5.000,1.000
"04/07/08","15:15:46",15584.000,"cc",28307.283,6.00,6,0.100,7226.000,0.200,2668.000,0.300,2188.000,0.500,2547.000,1.000,955.000,5.000,0
"04/07/08","15:15:52",15026.000,"cc",28384.479,6.00,6,0.100,7123.000,0.200,2406.000,0.300,2093.000,0.500,2468.000,1.000,936.000,5.000,0
"04/07/08","15:15:58",14981.000,"cc",28435.045,6.00,6,0.100,7062.000,0.200,2481.000,0.300,2039.000,0.500,2435.000,1.000,964.000,5.000,0
"04/07/08","15:16:04",14847.000,"cc",28361.885,6.00,6,0.100,7004.000,0.200,2444.000,0.300,2053.000,0.500,2402.000,1.000,944.000,5.000,0
"04/07/08","15:16:10",15135.000,"cc",28254.420,6.00,6,0.100,7215.000,0.200,2386.000,0.300,2128.000,0.500,2428.000,1.000,978.000,5.000,0
"04/07/08","15:16:16",15012.000,"cc",28207.566,6.00,6,0.100,7014.000,0.200,2465.000,0.300,2103.000,0.500,2504.000,1.000,926.000,5.000,0
"04/07/08","15:16:22",15272.000,"cc",28345.283,6.00,6,0.100,7307.000,0.200,2534.000,0.300,2072.000,0.500,2446.000,1.000,913.000,5.000,0
"04/07/08","15:16:28",15125.000,"cc",28390.453,6.00,6,0.100,7199.000,0.200,2438.000,0.300,2049.000,0.500,2484.000,1.000,954.000,5.000,1.000